Year,Month,Day,Hour,Minute,Value (Times are PST for temperature in C)
2014,04,11,00,00,9.80
2014,04,11,00,01,9.80
2014,04,11,00,02,9.80
2014,04,11,00,03,9.80
2014,04,11,00,04,9.80
2014,04,11,00,05,9.80
2014,04,11,00,06,9.80
2014,04,11,00,07,9.80
2014,04,11,00,08,9.80
2014,04,11,00,09,9.80
2014,04,11,00,10,9.80
2014,04,11,00,11,9.80
2014,04,11,00,12,9.80
2014,04,11,00,13,9.80
2014,04,11,00,14,9.80
2014,04,11,00,15,9.80
2014,04,11,00,16,9.80
2014,04,11,00,17,9.80
2014,04,11,00,18,9.80
2014,04,11,00,19,9.80
2014,04,11,00,20,9.80
2014,04,11,00,21,9.80
2014,04,11,00,22,9.80
2014,04,11,00,23,9.80
2014,04,11,00,24,9.70
2014,04,11,00,25,9.70
2014,04,11,00,26,9.70
2014,04,11,00,27,9.70
2014,04,11,00,28,9.70
2014,04,11,00,29,9.70
2014,04,11,00,30,9.70
2014,04,11,00,31,9.70
2014,04,11,00,32,9.70
2014,04,11,00,33,9.60
2014,04,11,00,34,9.60
2014,04,11,00,35,9.60
2014,04,11,00,36,9.60
2014,04,11,00,37,9.60
2014,04,11,00,38,9.60
2014,04,11,00,39,9.60
2014,04,11,00,40,9.60
2014,04,11,00,41,9.60
2014,04,11,00,42,9.60
2014,04,11,00,43,9.60
2014,04,11,00,44,9.60
2014,04,11,00,45,9.60
2014,04,11,00,46,9.60
2014,04,11,00,47,9.60
2014,04,11,00,48,9.60
2014,04,11,00,49,9.50
2014,04,11,00,50,9.50
2014,04,11,00,51,9.50
2014,04,11,00,52,9.50
2014,04,11,00,53,9.50
2014,04,11,00,54,9.50
2014,04,11,00,55,9.50
2014,04,11,00,56,9.50
2014,04,11,00,57,9.50
2014,04,11,00,58,9.50
2014,04,11,00,59,9.40
2014,04,11,01,00,9.40
2014,04,11,01,01,9.40
2014,04,11,01,02,9.40
2014,04,11,01,03,9.40
2014,04,11,01,04,9.40
2014,04,11,01,05,9.40
2014,04,11,01,06,9.40
2014,04,11,01,07,9.40
2014,04,11,01,08,9.40
2014,04,11,01,09,9.40
2014,04,11,01,10,9.40
2014,04,11,01,11,9.40
2014,04,11,01,12,9.30
2014,04,11,01,13,9.40
2014,04,11,01,14,9.30
2014,04,11,01,15,9.30
2014,04,11,01,16,9.30
2014,04,11,01,17,9.30
2014,04,11,01,18,9.30
2014,04,11,01,19,9.30
2014,04,11,01,20,9.30
2014,04,11,01,21,9.30
2014,04,11,01,22,9.30
2014,04,11,01,23,9.30
2014,04,11,01,24,9.30
2014,04,11,01,25,9.30
2014,04,11,01,26,9.30
2014,04,11,01,27,9.30
2014,04,11,01,28,9.30
2014,04,11,01,29,9.30
2014,04,11,01,30,9.30
2014,04,11,01,31,9.30
2014,04,11,01,32,9.30
2014,04,11,01,33,9.30
2014,04,11,01,34,9.30
2014,04,11,01,35,9.30
2014,04,11,01,36,9.30
2014,04,11,01,37,9.30
2014,04,11,01,38,9.30
2014,04,11,01,39,9.30
2014,04,11,01,40,9.30
2014,04,11,01,41,9.30
2014,04,11,01,42,9.30
2014,04,11,01,43,9.30
2014,04,11,01,44,9.30
2014,04,11,01,45,9.30
2014,04,11,01,46,9.20
2014,04,11,01,47,9.20
2014,04,11,01,48,9.20
2014,04,11,01,49,9.20
2014,04,11,01,50,9.20
2014,04,11,01,51,9.20
2014,04,11,01,52,9.10
2014,04,11,01,53,9.10
2014,04,11,01,54,9.10
2014,04,11,01,55,9.10
2014,04,11,01,56,9.00
2014,04,11,01,57,9.00
2014,04,11,01,58,8.90
2014,04,11,01,59,8.90
2014,04,11,02,00,8.90
2014,04,11,02,01,8.90
2014,04,11,02,02,8.90
2014,04,11,02,03,8.80
2014,04,11,02,04,8.80
2014,04,11,02,05,8.80
2014,04,11,02,06,8.80
2014,04,11,02,07,8.80
2014,04,11,02,08,8.80
2014,04,11,02,09,8.80
2014,04,11,02,10,8.70
2014,04,11,02,11,8.70
2014,04,11,02,12,8.70
2014,04,11,02,13,8.70
2014,04,11,02,14,8.70
2014,04,11,02,15,8.70
2014,04,11,02,16,8.70
2014,04,11,02,17,8.60
2014,04,11,02,18,8.60
2014,04,11,02,19,8.60
2014,04,11,02,20,8.60
2014,04,11,02,21,8.60
2014,04,11,02,22,8.60
2014,04,11,02,23,8.60
2014,04,11,02,24,8.60
2014,04,11,02,25,8.50
2014,04,11,02,26,8.50
2014,04,11,02,27,8.50
2014,04,11,02,28,8.50
2014,04,11,02,29,8.50
2014,04,11,02,30,8.40
2014,04,11,02,31,8.40
2014,04,11,02,32,8.40
2014,04,11,02,33,8.40
2014,04,11,02,34,8.40
2014,04,11,02,35,8.40
2014,04,11,02,36,8.40
2014,04,11,02,37,8.30
2014,04,11,02,38,8.30
2014,04,11,02,39,8.30
2014,04,11,02,40,8.30
2014,04,11,02,41,8.30
2014,04,11,02,42,8.30
2014,04,11,02,43,8.30
2014,04,11,02,44,8.30
2014,04,11,02,45,8.20
2014,04,11,02,46,8.20
2014,04,11,02,47,8.20
2014,04,11,02,48,8.20
2014,04,11,02,49,8.20
2014,04,11,02,50,8.20
2014,04,11,02,51,8.20
2014,04,11,02,52,8.20
2014,04,11,02,53,8.20
2014,04,11,02,54,8.20
2014,04,11,02,55,8.20
2014,04,11,02,56,8.20
2014,04,11,02,57,8.10
2014,04,11,02,58,8.10
2014,04,11,02,59,8.10
2014,04,11,03,00,8.10
2014,04,11,03,01,8.10
2014,04,11,03,02,8.10
2014,04,11,03,06,8.10
2014,04,11,03,07,8.10
2014,04,11,03,08,8.10
2014,04,11,03,09,8.10
2014,04,11,03,10,8.10
2014,04,11,03,11,8.10
2014,04,11,03,12,8.10
2014,04,11,03,13,8.00
2014,04,11,03,14,8.00
2014,04,11,03,15,8.00
2014,04,11,03,16,8.00
2014,04,11,03,17,8.00
2014,04,11,03,18,8.00
2014,04,11,03,19,7.90
2014,04,11,03,20,7.90
2014,04,11,03,21,7.90
2014,04,11,03,22,7.90
2014,04,11,03,23,7.90
2014,04,11,03,24,7.90
2014,04,11,03,25,7.90
2014,04,11,03,26,7.90
2014,04,11,03,27,7.90
2014,04,11,03,28,7.90
2014,04,11,03,29,7.90
2014,04,11,03,30,7.90
2014,04,11,03,31,7.90
2014,04,11,03,32,7.90
2014,04,11,03,33,7.90
2014,04,11,03,34,7.90
2014,04,11,03,35,7.90
2014,04,11,03,36,7.90
2014,04,11,03,37,7.90
2014,04,11,03,38,7.90
2014,04,11,03,39,7.90
2014,04,11,03,40,7.80
2014,04,11,03,41,7.80
2014,04,11,03,42,7.80
2014,04,11,03,43,7.80
2014,04,11,03,44,7.80
2014,04,11,03,45,7.80
2014,04,11,03,46,7.80
2014,04,11,03,47,7.80
2014,04,11,03,48,7.80
2014,04,11,03,49,7.80
2014,04,11,03,50,7.80
2014,04,11,03,51,7.80
2014,04,11,03,52,7.80
2014,04,11,03,53,7.80
2014,04,11,03,54,7.80
2014,04,11,03,55,7.80
2014,04,11,03,56,7.70
2014,04,11,03,57,7.70
2014,04,11,03,58,7.70
2014,04,11,03,59,7.70
2014,04,11,04,00,7.70
2014,04,11,04,01,7.70
2014,04,11,04,02,7.70
2014,04,11,04,03,7.70
2014,04,11,04,04,7.70
2014,04,11,04,05,7.70
2014,04,11,04,06,7.70
2014,04,11,04,07,7.70
2014,04,11,04,08,7.70
2014,04,11,04,09,7.70
2014,04,11,04,10,7.70
2014,04,11,04,11,7.70
2014,04,11,04,12,7.70
2014,04,11,04,13,7.70
2014,04,11,04,14,7.70
2014,04,11,04,15,7.70
2014,04,11,04,16,7.60
2014,04,11,04,17,7.60
2014,04,11,04,18,7.60
2014,04,11,04,19,7.60
2014,04,11,04,20,7.60
2014,04,11,04,21,7.60
2014,04,11,04,22,7.50
2014,04,11,04,23,7.50
2014,04,11,04,24,7.50
2014,04,11,04,25,7.40
2014,04,11,04,26,7.40
2014,04,11,04,27,7.40
2014,04,11,04,28,7.40
2014,04,11,04,29,7.40
2014,04,11,04,30,7.30
2014,04,11,04,31,7.30
2014,04,11,04,32,7.30
2014,04,11,04,33,7.30
2014,04,11,04,34,7.20
2014,04,11,04,35,7.20
2014,04,11,04,36,7.20
2014,04,11,04,37,7.20
2014,04,11,04,38,7.20
2014,04,11,04,39,7.20
2014,04,11,04,40,7.20
2014,04,11,04,41,7.10
2014,04,11,04,42,7.10
2014,04,11,04,43,7.10
2014,04,11,04,44,7.10
2014,04,11,04,45,7.00
2014,04,11,04,46,7.00
2014,04,11,04,47,6.90
2014,04,11,04,48,6.90
2014,04,11,04,49,6.90
2014,04,11,04,50,6.90
2014,04,11,04,51,6.90
2014,04,11,04,52,6.80
2014,04,11,04,53,6.80
2014,04,11,04,54,6.80
2014,04,11,04,55,6.80
2014,04,11,04,56,6.80
2014,04,11,04,57,6.80
2014,04,11,04,58,6.80
2014,04,11,04,59,6.80
2014,04,11,05,00,6.80
2014,04,11,05,01,6.80
2014,04,11,05,02,6.80
2014,04,11,05,03,6.80
2014,04,11,05,04,6.80
2014,04,11,05,05,6.80
2014,04,11,05,06,6.80
2014,04,11,05,07,6.80
2014,04,11,05,08,6.80
2014,04,11,05,09,6.80
2014,04,11,05,10,6.80
2014,04,11,05,11,6.80
2014,04,11,05,12,6.80
2014,04,11,05,13,6.80
2014,04,11,05,14,6.90
2014,04,11,05,15,6.90
2014,04,11,05,16,6.90
2014,04,11,05,17,6.90
2014,04,11,05,18,6.90
2014,04,11,05,19,6.90
2014,04,11,05,20,6.90
2014,04,11,05,21,7.00
2014,04,11,05,22,6.90
2014,04,11,05,23,6.90
2014,04,11,05,24,6.90
2014,04,11,05,25,6.90
2014,04,11,05,26,6.90
2014,04,11,05,27,7.00
2014,04,11,05,28,7.00
2014,04,11,05,29,7.00
2014,04,11,05,30,7.00
2014,04,11,05,31,7.00
2014,04,11,05,32,7.00
2014,04,11,05,33,7.00
2014,04,11,05,34,7.00
2014,04,11,05,35,7.00
2014,04,11,05,36,7.00
2014,04,11,05,37,7.00
2014,04,11,05,38,7.10
2014,04,11,05,39,7.10
2014,04,11,05,40,7.10
2014,04,11,05,41,7.10
2014,04,11,05,42,7.10
2014,04,11,05,43,7.20
2014,04,11,05,44,7.20
2014,04,11,05,45,7.20
2014,04,11,05,46,7.20
2014,04,11,05,47,7.20
2014,04,11,05,48,7.30
2014,04,11,05,49,7.30
2014,04,11,05,50,7.30
2014,04,11,05,51,7.30
2014,04,11,05,52,7.40
2014,04,11,05,53,7.40
2014,04,11,05,54,7.50
2014,04,11,05,55,7.50
2014,04,11,05,56,7.60
2014,04,11,05,57,7.70
2014,04,11,05,58,7.70
2014,04,11,05,59,7.80
2014,04,11,06,00,7.80
2014,04,11,06,01,7.90
2014,04,11,06,02,8.00
2014,04,11,06,03,8.00
2014,04,11,06,04,8.10
2014,04,11,06,05,8.10
2014,04,11,06,06,8.20
2014,04,11,06,07,8.20
2014,04,11,06,08,8.30
2014,04,11,06,09,8.30
2014,04,11,06,10,8.40
2014,04,11,06,11,8.40
2014,04,11,06,12,8.40
2014,04,11,06,13,8.50
2014,04,11,06,14,8.50
2014,04,11,06,15,8.60
2014,04,11,06,16,8.60
2014,04,11,06,17,8.60
2014,04,11,06,18,8.70
2014,04,11,06,19,8.70
2014,04,11,06,20,8.70
2014,04,11,06,21,8.70
2014,04,11,06,22,8.80
2014,04,11,06,23,8.80
2014,04,11,06,24,8.80
2014,04,11,06,25,8.80
2014,04,11,06,26,8.80
2014,04,11,06,27,8.80
2014,04,11,06,28,8.80
2014,04,11,06,29,8.80
2014,04,11,06,30,8.80
2014,04,11,06,31,8.80
2014,04,11,06,32,8.80
2014,04,11,06,33,8.80
2014,04,11,06,34,8.80
2014,04,11,06,35,8.80
2014,04,11,06,36,8.80
2014,04,11,06,37,8.80
2014,04,11,06,38,8.80
2014,04,11,06,39,8.90
2014,04,11,06,40,8.90
2014,04,11,06,41,8.90
2014,04,11,06,42,8.90
2014,04,11,06,43,8.90
2014,04,11,06,44,8.90
2014,04,11,06,45,8.80
2014,04,11,06,46,8.90
2014,04,11,06,47,8.80
2014,04,11,06,48,8.80
2014,04,11,06,49,8.80
2014,04,11,06,50,8.80
2014,04,11,06,51,8.80
2014,04,11,06,52,8.80
2014,04,11,06,53,8.80
2014,04,11,06,54,8.80
2014,04,11,06,55,8.80
2014,04,11,06,56,8.80
2014,04,11,06,57,8.80
2014,04,11,06,58,8.80
2014,04,11,06,59,8.80
2014,04,11,07,00,8.80
2014,04,11,07,01,8.80
2014,04,11,07,02,8.80
2014,04,11,07,03,8.70
2014,04,11,07,04,8.70
2014,04,11,07,05,8.70
2014,04,11,07,06,8.70
2014,04,11,07,07,8.70
2014,04,11,07,08,8.70
2014,04,11,07,09,8.70
2014,04,11,07,10,8.70
2014,04,11,07,11,8.70
2014,04,11,07,12,8.70
2014,04,11,07,13,8.70
2014,04,11,07,14,8.70
2014,04,11,07,15,8.70
2014,04,11,07,16,8.70
2014,04,11,07,17,8.70
2014,04,11,07,18,8.70
2014,04,11,07,19,8.70
2014,04,11,07,20,8.70
2014,04,11,07,21,8.70
2014,04,11,07,22,8.70
2014,04,11,07,23,8.70
2014,04,11,07,24,8.70
2014,04,11,07,25,8.70
2014,04,11,07,26,8.80
2014,04,11,07,27,8.80
2014,04,11,07,28,8.80
2014,04,11,07,29,8.80
2014,04,11,07,30,8.80
2014,04,11,07,31,8.80
2014,04,11,07,32,8.80
2014,04,11,07,33,8.80
2014,04,11,07,34,8.80
2014,04,11,07,35,8.80
2014,04,11,07,36,8.80
2014,04,11,07,37,8.90
2014,04,11,07,38,8.90
2014,04,11,07,39,8.90
2014,04,11,07,40,8.90
2014,04,11,07,41,8.90
2014,04,11,07,42,8.90
2014,04,11,07,43,8.90
2014,04,11,07,44,8.90
2014,04,11,07,45,8.90
2014,04,11,07,46,8.90
2014,04,11,07,47,8.90
2014,04,11,07,48,8.90
2014,04,11,07,49,8.90
2014,04,11,07,50,8.90
2014,04,11,07,51,8.90
2014,04,11,07,52,8.90
2014,04,11,07,53,8.90
2014,04,11,07,54,8.90
2014,04,11,07,55,8.90
2014,04,11,07,56,8.90
2014,04,11,07,57,8.90
2014,04,11,07,58,9.00
2014,04,11,07,59,9.00
2014,04,11,08,00,9.00
2014,04,11,08,01,9.00
2014,04,11,08,02,9.10
2014,04,11,08,03,9.00
2014,04,11,08,04,9.10
2014,04,11,08,05,9.10
2014,04,11,08,06,9.10
2014,04,11,08,07,9.10
2014,04,11,08,08,9.10
2014,04,11,08,09,9.10
2014,04,11,08,10,9.10
2014,04,11,08,11,9.10
2014,04,11,08,12,9.20
2014,04,11,08,13,9.20
2014,04,11,08,14,9.20
2014,04,11,08,15,9.20
2014,04,11,08,16,9.20
2014,04,11,08,17,9.20
2014,04,11,08,18,9.30
2014,04,11,08,19,9.30
2014,04,11,08,20,9.30
2014,04,11,08,21,9.30
2014,04,11,08,22,9.30
2014,04,11,08,23,9.30
2014,04,11,08,24,9.30
2014,04,11,08,25,9.30
2014,04,11,08,26,9.40
2014,04,11,08,27,9.40
2014,04,11,08,28,9.40
2014,04,11,08,29,9.40
2014,04,11,08,30,9.50
2014,04,11,08,31,9.50
2014,04,11,08,32,9.50
2014,04,11,08,33,9.50
2014,04,11,08,34,9.50
2014,04,11,08,35,9.60
2014,04,11,08,36,9.60
2014,04,11,08,37,9.60
2014,04,11,08,38,9.60
2014,04,11,08,39,9.60
2014,04,11,08,40,9.60
2014,04,11,08,41,9.60
2014,04,11,08,42,9.60
2014,04,11,08,43,9.70
2014,04,11,08,44,9.70
2014,04,11,08,45,9.70
2014,04,11,08,46,9.80
2014,04,11,08,47,9.80
2014,04,11,08,48,9.80
2014,04,11,08,49,9.80
2014,04,11,08,50,9.80
2014,04,11,08,51,9.80
2014,04,11,08,52,9.90
2014,04,11,08,53,10.00
2014,04,11,08,54,10.00
2014,04,11,08,55,10.10
2014,04,11,08,56,10.10
2014,04,11,08,57,10.20
2014,04,11,08,58,10.20
2014,04,11,08,59,10.20
2014,04,11,09,00,10.20
2014,04,11,09,01,10.30
2014,04,11,09,02,10.20
2014,04,11,09,03,10.20
2014,04,11,09,04,10.20
2014,04,11,09,05,10.30
2014,04,11,09,06,10.30
2014,04,11,09,07,10.30
2014,04,11,09,08,10.30
2014,04,11,09,09,10.30
2014,04,11,09,10,10.30
2014,04,11,09,11,10.30
2014,04,11,09,12,10.40
2014,04,11,09,13,10.40
2014,04,11,09,14,10.40
2014,04,11,09,15,10.50
2014,04,11,09,16,10.50
2014,04,11,09,17,10.60
2014,04,11,09,18,10.60
2014,04,11,09,19,10.60
2014,04,11,09,20,10.60
2014,04,11,09,21,10.60
2014,04,11,09,22,10.60
2014,04,11,09,23,10.60
2014,04,11,09,24,10.60
2014,04,11,09,25,10.60
2014,04,11,09,26,10.60
2014,04,11,09,27,10.70
2014,04,11,09,28,10.70
2014,04,11,09,29,10.70
2014,04,11,09,30,10.70
2014,04,11,09,31,10.70
2014,04,11,09,32,10.80
2014,04,11,09,33,10.80
2014,04,11,09,34,10.80
2014,04,11,09,35,10.80
2014,04,11,09,36,10.80
2014,04,11,09,37,10.80
2014,04,11,09,38,10.90
2014,04,11,09,39,10.90
2014,04,11,09,40,10.90
2014,04,11,09,41,10.90
2014,04,11,09,42,11.00
2014,04,11,09,43,11.00
2014,04,11,09,44,11.00
2014,04,11,09,45,11.10
2014,04,11,09,46,11.00
2014,04,11,09,47,11.00
2014,04,11,09,48,11.00
2014,04,11,09,49,11.00
2014,04,11,09,50,11.00
2014,04,11,09,51,11.00
2014,04,11,09,52,11.10
2014,04,11,09,53,11.10
2014,04,11,09,54,11.20
2014,04,11,09,55,11.20
2014,04,11,09,56,11.30
2014,04,11,09,57,11.30
2014,04,11,09,58,11.40
2014,04,11,09,59,11.40
2014,04,11,10,00,11.40
2014,04,11,10,01,11.50
2014,04,11,10,02,11.50
2014,04,11,10,03,11.60
2014,04,11,10,04,11.60
2014,04,11,10,05,11.60
2014,04,11,10,06,11.60
2014,04,11,10,07,11.70
2014,04,11,10,08,11.70
2014,04,11,10,09,11.70
2014,04,11,10,10,11.60
2014,04,11,10,11,11.60
2014,04,11,10,12,11.60
2014,04,11,10,13,11.60
2014,04,11,10,14,11.60
2014,04,11,10,15,11.60
2014,04,11,10,16,11.60
2014,04,11,10,17,11.70
2014,04,11,10,18,11.70
2014,04,11,10,19,11.80
2014,04,11,10,20,11.90
2014,04,11,10,21,12.00
2014,04,11,10,22,12.10
2014,04,11,10,23,12.20
2014,04,11,10,24,12.20
2014,04,11,10,25,12.30
2014,04,11,10,26,12.30
2014,04,11,10,27,12.40
2014,04,11,10,28,12.50
2014,04,11,10,29,12.60
2014,04,11,10,30,12.70
2014,04,11,10,31,12.70
2014,04,11,10,32,12.70
2014,04,11,10,33,12.80
2014,04,11,10,34,12.80
2014,04,11,10,35,12.80
2014,04,11,10,36,12.80
2014,04,11,10,37,12.80
2014,04,11,10,38,12.90
2014,04,11,10,39,13.00
2014,04,11,10,40,13.00
2014,04,11,10,41,13.00
2014,04,11,10,42,13.10
2014,04,11,10,43,13.10
2014,04,11,10,44,13.10
2014,04,11,10,45,13.20
2014,04,11,10,46,13.30
2014,04,11,10,47,13.40
2014,04,11,10,48,13.50
2014,04,11,10,49,13.50
2014,04,11,10,50,13.40
2014,04,11,10,51,13.30
2014,04,11,10,52,13.30
2014,04,11,10,53,13.30
2014,04,11,10,54,13.40
2014,04,11,10,55,13.40
2014,04,11,10,56,13.50
2014,04,11,10,57,13.50
2014,04,11,10,58,13.60
2014,04,11,10,59,13.70
2014,04,11,11,00,13.60
2014,04,11,11,01,13.60
2014,04,11,11,02,13.70
2014,04,11,11,03,13.70
2014,04,11,11,04,13.80
2014,04,11,11,05,13.80
2014,04,11,11,06,13.80
2014,04,11,11,07,13.80
2014,04,11,11,08,13.90
2014,04,11,11,09,14.00
2014,04,11,11,10,14.10
2014,04,11,11,11,14.10
2014,04,11,11,12,14.20
2014,04,11,11,13,14.20
2014,04,11,11,14,14.10
2014,04,11,11,15,14.10
2014,04,11,11,16,14.00
2014,04,11,11,17,14.00
2014,04,11,11,18,14.00
2014,04,11,11,19,14.00
2014,04,11,11,20,14.00
2014,04,11,11,21,14.00
2014,04,11,11,22,14.10
2014,04,11,11,23,14.10
2014,04,11,11,24,14.20
2014,04,11,11,25,14.20
2014,04,11,11,26,14.20
2014,04,11,11,27,14.20
2014,04,11,11,28,14.20
2014,04,11,11,29,14.20
2014,04,11,11,30,14.20
2014,04,11,11,31,14.30
2014,04,11,11,32,14.30
2014,04,11,11,33,14.40
2014,04,11,11,34,14.40
2014,04,11,11,35,14.50
2014,04,11,11,36,14.50
2014,04,11,11,37,14.50
2014,04,11,11,38,14.60
2014,04,11,11,39,14.60
2014,04,11,11,40,14.80
2014,04,11,11,41,14.80
2014,04,11,11,42,14.70
2014,04,11,11,43,14.50
2014,04,11,11,44,14.40
2014,04,11,11,45,14.30
2014,04,11,11,46,14.20
2014,04,11,11,47,14.20
2014,04,11,11,48,14.20
2014,04,11,11,49,14.30
2014,04,11,11,50,14.40
2014,04,11,11,51,14.40
2014,04,11,11,52,14.50
2014,04,11,11,53,14.60
2014,04,11,11,54,14.50
2014,04,11,11,55,14.40
2014,04,11,11,56,14.40
2014,04,11,11,57,14.40
2014,04,11,11,58,14.30
2014,04,11,11,59,14.30
2014,04,11,12,00,14.30
2014,04,11,12,01,14.30
2014,04,11,12,02,14.40
2014,04,11,12,03,14.40
2014,04,11,12,04,14.30
2014,04,11,12,05,14.30
2014,04,11,12,06,14.30
2014,04,11,12,07,14.20
2014,04,11,12,08,14.20
2014,04,11,12,09,14.20
2014,04,11,12,10,14.20
2014,04,11,12,11,14.20
2014,04,11,12,12,14.20
2014,04,11,12,13,14.20
2014,04,11,12,14,14.20
2014,04,11,12,15,14.40
2014,04,11,12,16,14.50
2014,04,11,12,17,14.50
2014,04,11,12,18,14.40
2014,04,11,12,19,14.30
2014,04,11,12,20,14.30
2014,04,11,12,21,14.30
2014,04,11,12,22,14.30
2014,04,11,12,23,14.30
2014,04,11,12,24,14.30
2014,04,11,12,25,14.30
2014,04,11,12,26,14.40
2014,04,11,12,27,14.40
2014,04,11,12,28,14.40
2014,04,11,12,29,14.40
2014,04,11,12,30,14.30
2014,04,11,12,31,14.20
2014,04,11,12,32,14.20
2014,04,11,12,33,14.10
2014,04,11,12,34,14.00
2014,04,11,12,35,14.00
2014,04,11,12,36,14.00
2014,04,11,12,37,13.90
2014,04,11,12,38,13.80
2014,04,11,12,39,13.80
2014,04,11,12,40,13.80
2014,04,11,12,41,13.80
2014,04,11,12,42,13.80
2014,04,11,12,43,13.80
2014,04,11,12,44,13.90
2014,04,11,12,45,14.00
2014,04,11,12,46,14.10
2014,04,11,12,47,14.10
2014,04,11,12,48,14.10
2014,04,11,12,49,14.10
2014,04,11,12,50,14.10
2014,04,11,12,51,14.10
2014,04,11,12,52,14.10
2014,04,11,12,53,14.10
2014,04,11,12,54,14.20
2014,04,11,12,55,14.10
2014,04,11,12,56,14.00
2014,04,11,12,57,14.00
2014,04,11,12,58,14.10
2014,04,11,12,59,14.10
2014,04,11,13,00,14.20
2014,04,11,13,01,14.20
2014,04,11,13,02,14.20
2014,04,11,13,03,14.20
2014,04,11,13,04,14.10
2014,04,11,13,05,14.10
2014,04,11,13,06,14.10
2014,04,11,13,07,14.10
2014,04,11,13,08,14.10
2014,04,11,13,09,14.20
2014,04,11,13,10,14.30
2014,04,11,13,11,14.50
2014,04,11,13,12,14.60
2014,04,11,13,13,14.60
2014,04,11,13,14,14.80
2014,04,11,13,15,14.70
2014,04,11,13,16,14.60
2014,04,11,13,17,14.70
2014,04,11,13,18,14.70
2014,04,11,13,19,14.70
2014,04,11,13,20,14.60
2014,04,11,13,21,14.60
2014,04,11,13,22,14.60
2014,04,11,13,23,14.50
2014,04,11,13,24,14.50
2014,04,11,13,25,14.40
2014,04,11,13,26,14.40
2014,04,11,13,27,14.40
2014,04,11,13,28,14.40
2014,04,11,13,29,14.40
2014,04,11,13,30,14.40
2014,04,11,13,31,14.50
2014,04,11,13,32,14.50
2014,04,11,13,33,14.50
2014,04,11,13,34,14.40
2014,04,11,13,35,14.30
2014,04,11,13,36,14.30
2014,04,11,13,37,14.40
2014,04,11,13,38,14.40
2014,04,11,13,39,14.40
2014,04,11,13,40,14.50
2014,04,11,13,41,14.50
2014,04,11,13,42,14.40
2014,04,11,13,43,14.40
2014,04,11,13,44,14.50
2014,04,11,13,45,14.50
2014,04,11,13,46,14.50
2014,04,11,13,47,14.60
2014,04,11,13,48,14.70
2014,04,11,13,49,14.80
2014,04,11,13,50,14.70
2014,04,11,13,51,14.60
2014,04,11,13,52,14.60
2014,04,11,13,53,14.50
2014,04,11,13,54,14.40
2014,04,11,13,55,14.30
2014,04,11,13,56,14.20
2014,04,11,13,57,14.20
2014,04,11,13,58,14.20
2014,04,11,13,59,14.10
2014,04,11,14,00,14.00
2014,04,11,14,01,13.90
2014,04,11,14,02,13.90
2014,04,11,14,03,14.00
2014,04,11,14,04,14.20
2014,04,11,14,05,14.20
2014,04,11,14,06,14.20
2014,04,11,14,07,14.10
2014,04,11,14,08,14.10
2014,04,11,14,09,14.10
2014,04,11,14,10,14.00
2014,04,11,14,11,14.00
2014,04,11,14,12,14.00
2014,04,11,14,13,14.00
2014,04,11,14,14,13.90
2014,04,11,14,15,13.90
2014,04,11,14,16,13.90
2014,04,11,14,17,13.90
2014,04,11,14,18,13.90
2014,04,11,14,19,13.90
2014,04,11,14,20,13.90
2014,04,11,14,21,13.90
2014,04,11,14,22,13.90
2014,04,11,14,23,14.00
2014,04,11,14,24,13.90
2014,04,11,14,25,14.00
2014,04,11,14,26,14.00
2014,04,11,14,27,14.00
2014,04,11,14,28,14.00
2014,04,11,14,29,14.00
2014,04,11,14,30,14.00
2014,04,11,14,31,14.20
2014,04,11,14,32,14.30
2014,04,11,14,33,14.30
2014,04,11,14,34,14.50
2014,04,11,14,35,14.50
2014,04,11,14,36,14.60
2014,04,11,14,37,14.60
2014,04,11,14,38,14.60
2014,04,11,14,39,14.60
2014,04,11,14,40,14.70
2014,04,11,14,41,14.70
2014,04,11,14,42,14.70
2014,04,11,14,43,14.60
2014,04,11,14,44,14.60
2014,04,11,14,45,14.70
2014,04,11,14,46,14.70
2014,04,11,14,47,14.70
2014,04,11,14,48,14.80
2014,04,11,14,49,14.90
2014,04,11,14,50,14.90
2014,04,11,14,51,14.90
2014,04,11,14,52,15.00
2014,04,11,14,53,15.00
2014,04,11,14,54,15.00
2014,04,11,14,55,14.90
2014,04,11,14,56,14.90
2014,04,11,14,57,14.90
2014,04,11,14,58,14.90
2014,04,11,14,59,15.00
2014,04,11,15,00,14.90
2014,04,11,15,01,15.00
2014,04,11,15,02,15.10
2014,04,11,15,03,15.10
2014,04,11,15,04,15.00
2014,04,11,15,05,14.90
2014,04,11,15,06,15.00
2014,04,11,15,07,15.00
2014,04,11,15,08,15.00
2014,04,11,15,09,15.10
2014,04,11,15,10,15.10
2014,04,11,15,11,15.20
2014,04,11,15,12,15.20
2014,04,11,15,13,15.20
2014,04,11,15,14,15.20
2014,04,11,15,15,15.20
2014,04,11,15,16,15.20
2014,04,11,15,17,15.20
2014,04,11,15,18,15.10
2014,04,11,15,19,15.10
2014,04,11,15,20,15.10
2014,04,11,15,21,15.20
2014,04,11,15,22,15.20
2014,04,11,15,23,15.10
2014,04,11,15,24,15.00
2014,04,11,15,25,14.90
2014,04,11,15,26,14.80
2014,04,11,15,27,14.70
2014,04,11,15,28,14.70
2014,04,11,15,29,14.80
2014,04,11,15,30,14.90
2014,04,11,15,31,14.80
2014,04,11,15,32,14.90
2014,04,11,15,33,15.00
2014,04,11,15,34,15.00
2014,04,11,15,35,15.10
2014,04,11,15,36,15.20
2014,04,11,15,37,15.20
2014,04,11,15,38,15.20
2014,04,11,15,39,15.20
2014,04,11,15,40,15.20
2014,04,11,15,41,15.10
2014,04,11,15,42,15.00
2014,04,11,15,43,14.90
2014,04,11,15,44,15.00
2014,04,11,15,45,15.10
2014,04,11,15,46,15.20
2014,04,11,15,47,15.30
2014,04,11,15,48,15.20
2014,04,11,15,49,15.20
2014,04,11,15,50,15.30
2014,04,11,15,51,15.30
2014,04,11,15,52,15.30
2014,04,11,15,53,15.30
2014,04,11,15,54,15.30
2014,04,11,15,55,15.40
2014,04,11,15,56,15.40
2014,04,11,15,57,15.50
2014,04,11,15,58,15.60
2014,04,11,15,59,15.60
2014,04,11,16,00,15.60
2014,04,11,16,01,15.50
2014,04,11,16,02,15.40
2014,04,11,16,03,15.20
2014,04,11,16,04,15.10
2014,04,11,16,05,15.10
2014,04,11,16,06,15.00
2014,04,11,16,07,15.10
2014,04,11,16,08,15.10
2014,04,11,16,09,15.20
2014,04,11,16,10,15.20
2014,04,11,16,11,15.20
2014,04,11,16,12,15.20
2014,04,11,16,13,15.20
2014,04,11,16,14,15.20
2014,04,11,16,15,15.10
2014,04,11,16,16,15.00
2014,04,11,16,17,15.00
2014,04,11,16,18,15.00
2014,04,11,16,19,15.10
2014,04,11,16,20,15.20
2014,04,11,16,21,15.10
2014,04,11,16,22,15.00
2014,04,11,16,23,14.90
2014,04,11,16,24,14.80
2014,04,11,16,25,14.80
2014,04,11,16,26,14.80
2014,04,11,16,27,14.90
2014,04,11,16,28,14.80
2014,04,11,16,29,14.70
2014,04,11,16,30,14.70
2014,04,11,16,31,14.70
2014,04,11,16,32,14.80
2014,04,11,16,33,14.90
2014,04,11,16,34,14.90
2014,04,11,16,35,15.00
2014,04,11,16,36,15.00
2014,04,11,16,37,15.10
2014,04,11,16,38,15.20
2014,04,11,16,39,15.30
2014,04,11,16,40,15.20
2014,04,11,16,41,15.00
2014,04,11,16,42,14.90
2014,04,11,16,43,14.90
2014,04,11,16,44,15.00
2014,04,11,16,45,15.10
2014,04,11,16,46,15.10
2014,04,11,16,47,15.00
2014,04,11,16,48,15.00
2014,04,11,16,49,15.10
2014,04,11,16,50,15.10
2014,04,11,16,51,15.10
2014,04,11,16,52,15.10
2014,04,11,16,53,15.00
2014,04,11,16,54,15.00
2014,04,11,16,55,14.90
2014,04,11,16,56,14.90
2014,04,11,16,57,14.90
2014,04,11,16,58,14.90
2014,04,11,16,59,14.80
2014,04,11,17,00,14.80
2014,04,11,17,01,14.80
2014,04,11,17,02,14.80
2014,04,11,17,03,14.70
2014,04,11,17,04,14.60
2014,04,11,17,05,14.60
2014,04,11,17,06,14.70
2014,04,11,17,07,14.70
2014,04,11,17,08,14.70
2014,04,11,17,09,14.70
2014,04,11,17,10,14.60
2014,04,11,17,11,14.50
2014,04,11,17,12,14.40
2014,04,11,17,13,14.50
2014,04,11,17,14,14.50
2014,04,11,17,15,14.50
2014,04,11,17,16,14.50
2014,04,11,17,17,14.60
2014,04,11,17,18,14.50
2014,04,11,17,19,14.40
2014,04,11,17,20,14.30
2014,04,11,17,21,14.20
2014,04,11,17,22,14.20
2014,04,11,17,23,14.10
2014,04,11,17,24,14.10
2014,04,11,17,25,14.00
2014,04,11,17,26,14.00
2014,04,11,17,27,14.10
2014,04,11,17,28,14.10
2014,04,11,17,29,14.10
2014,04,11,17,30,14.10
2014,04,11,17,31,14.10
2014,04,11,17,32,14.00
2014,04,11,17,33,14.00
2014,04,11,17,34,13.90
2014,04,11,17,35,13.90
2014,04,11,17,36,13.90
2014,04,11,17,37,14.00
2014,04,11,17,38,14.10
2014,04,11,17,39,14.20
2014,04,11,17,40,14.10
2014,04,11,17,41,14.10
2014,04,11,17,42,14.10
2014,04,11,17,43,14.00
2014,04,11,17,44,14.10
2014,04,11,17,45,14.00